Preview of NWS' New Version of Forecast
This preview is not operational and should not be used for support decisions.

Regional Weather Roundup (RWR)

Issued by National Weather Service (NWS)

                            
000
ASUS43 KDTX 162101
RWRMI 
MICHIGAN HOURLY REGIONAL WEATHER ROUNDUP
NATIONAL WEATHER SERVICE DETROIT/PONTIAC MI
500 PM EDT SUN JUN 16 2019

NOTE: "FAIR" INDICATES FEW OR NO CLOUDS BELOW 12,000 FEET WITH NO
SIGNIFICANT WEATHER AND/OR OBSTRUCTION TO VISIBILITY.

MIZ047>049-052>055-059>063-066>070-074>076-081>083-162200-
SOUTHEAST LOWER MICHIGAN
  
CITY           SKY/WX    TMP DP  RH WIND       PRES   REMARKS
ADRIAN         CLOUDY    63  60  90 E5        29.89R                  
ANN ARBOR      CLOUDY    63  61  93 E6        29.89S FOG              
BAD AXE        FAIR      61  49  65 NE9       29.93S                  
CARO           CLOUDY    64  50  59 NE5       29.92R                  
DETROIT CITY   CLOUDY    61  59  93 N9        29.89S FOG              
DETROIT        CLOUDY    62  58  86 N8        29.90R FOG              
FLINT          CLOUDY    63  53  70 NE9       29.91S                  
GROSSE ILE     CLOUDY    63  61  94 NE6       29.88S FOG              
HILLSDALE      CLOUDY    64  60  89 E3        29.88S                  
HOWELL         CLOUDY    61  56  84 NE7       29.90S                  

CITY           SKY/WX    TMP DP  RH WIND       PRES   REMARKS
JACKSON        CLOUDY    61  60  97 NE6       29.89S                  
LAMBERTVILLE   CLOUDY    63  62  97 CALM      29.88S                  
LANSING        CLOUDY    61  54  77 NE12      29.90S                  
LAPEER         CLOUDY    63  54  73 NE3       29.91F                  
MASON          CLOUDY    61  59  93 E6        29.90S FOG              
MONROE         CLOUDY    64  63  97 E5        29.88R                  
MT. CLEMENS    CLOUDY    61  61 100 NE8       29.89S FOG              
PONTIAC        DRIZZLE   60  59  96 NE6       29.89S FOG              
PORT HOPE        N/A     54  49  83 NE14      29.93S                  
PORT HURON     CLOUDY    61  54  77 NE6       29.91S                  
TRI CITIES     CLOUDY    60  54  80 NE10      29.93R                  
MIDLAND        NOT AVBL                                               
$$
MIZ043>046-050>051-056>058-064>065-071>073-077>080-162200-
SOUTHWEST LOWER MICHIGAN
  
CITY           SKY/WX    TMP DP  RH WIND       PRES   REMARKS
BATTLE CREEK   CLOUDY    60  58  92 NE9       29.88S                  
BENTON HARBOR  CLOUDY    66  61  84 CALM      29.84F HAZE             
BIG RAPIDS     CLOUDY    58  45  61 E9        29.93S                  
COLDWATER      CLOUDY    67  67 100 NE9       29.86S                  
FREMONT        CLOUDY    61  50  67 E9        29.91S                  
HOLLAND        CLOUDY    58  55  90 E8        29.88S FOG              
GRAND RAPIDS   CLOUDY    61  52  72 E9        29.89S                  
IONIA          CLOUDY    61  49  65 NE8       29.89F                  
KALAMAZOO      CLOUDY    65  59  81 VRB6      29.87S                  
LUDINGTON      CLOUDY    58  55  92 NE5       29.91F                  
MARSHALL       CLOUDY    61  61 100 CALM      29.88S                  
MOUNT PLEASANT CLOUDY    61  47  60 NE7       29.93S                  
MUSKEGON       CLOUDY    62  48  60 NE9       29.89S                  
SOUTH HAVEN    CLOUDY    62  59  90 NE7       29.85S                  
$$
MIZ016>042-162200-
NORTHERN LOWER MICHIGAN
  
CITY           SKY/WX    TMP DP  RH WIND       PRES   REMARKS
ALPENA         FAIR      57  49  74 E7        29.98S                  
BEAVER ISLAND  FAIR      66  45  46 E5        29.95F                  
BELLAIRE       FAIR      66  49  54 SE3       29.94F                  
CADILLAC       DRIZZLE   60  56  89 SE7       29.93F                  
CHARLEVOIX     FAIR      63  50  63 NW6       29.97S                  
FRANKFORT      CLOUDY    64  53  68 NE3       29.93F                  
GAYLORD        FAIR      63  48  58 E6        29.96R                  
HOUGHTON LAKE  CLOUDY    62  45  53 E9        29.95R                  
MANISTEE       LGT RAIN  56  54  93 E6        29.93F                  
OSCODA         FAIR      56  47  72 NE9       29.95S                  
PELLSTON       FAIR      67  49  52 NE6       29.96S                  
ROGERS CITY    FAIR      59  49  69 E5        29.98S                  
TRAVERSE CITY  CLOUDY    63  54  72 CALM      29.93S                  
$$
MIZ007>008-015-162200-
EASTERN UPPER MICHIGAN
  
CITY           SKY/WX    TMP DP  RH WIND       PRES   REMARKS
KINROSS        PTSUNNY   67  47  48 CALM      29.95S                  
MACKINAC ISLAN FAIR      62  48  58 SE5       29.95F                  
NEWBERRY       PTSUNNY   66  46  48 N8        29.94S HAZE             
S. S. MARIE    FAIR      70  48  45 VRB7      29.94F                  
MUNISING         N/A     51  44  77 N10       29.97F                  
$$
MIZ004>006-011>014-085-162200-
CENTRAL UPPER MICHIGAN
  
CITY           SKY/WX    TMP DP  RH WIND       PRES   REMARKS
MANISTIQUE     FAIR      65  46  51 S6        29.94F                  
ESCANABA       FAIR      62  48  60 SE10      29.94F                  
MENOMINEE      FAIR      59  50  72 E10       29.95S                  
SAWYER-GWINN   PTSUNNY   61  45  55 NE14      29.97R                  
$$
MIZ001>003-009>011-084-162200-
WESTERN UPPER MICHIGAN
  
CITY           SKY/WX    TMP DP  RH WIND       PRES   REMARKS
IRON MOUNTAIN  FAIR      71  45  39 NE3       29.91F                  
HOUGHTON       FAIR      62  45  53 E9        29.97F                  
COPPER HARBOR    N/A     53  46  77 E5        29.99F                  
IRONWOOD       FAIR      64  46  52 N9        29.95S                  
$$

ABBREVIATIONS USED IN REMARKS
   TC - TEMPERATURE IN CELSIUS
  WCI - WIND CHILL INDEX
   HX - HEAT INDEX
  VSB - VISIBILITY